Regional Weather Roundup
Issued by NWS Wakefield, VA

Home | Current Version | Previous Version | Graphics & Text | Print | Product List | Glossary On
Versions: 1 2 3 4 5 6 7 8 9 10 11 12 13 14 15 16 17 18 19 20 21 22 23 24 25 26 27 28 29 30 31 32 33 34 35 36 37 38 39 40 41 42 43 44 45 46 47 48 49 50
000
ASUS41 KAKQ 051314
RWRAKQ

REGIONAL WEATHER ROUNDUP
NATIONAL WEATHER SERVICE WAKEFIELD VA
900 AM EDT SUN JUL 05 2015

Note: "fair" indicates few or no clouds below 12,000 feet with no
significant weather and/or obstructions to visibility. * = Denotes
station may not report precipitation (e.g., rain,snow,etc.),
thunder or fog.

VAZ042-051-052>054-056-051400-
NORTHERN VIRGINIA

CITY           SKY/WX    TMP DP  RH WIND       PRES   REMARKS
WASH NATIONAL  CLOUDY    73  66  78 NE3       30.15R
DULLES         CLOUDY    67  65  93 CALM      30.16R FOG
FORT BELVOIR   MOSUNNY   71  69  93 VRB1      30.14R
QUANTICO       MOSUNNY   73  67  81 NE7       30.16R
FREDERICKSBRG* CLOUDY    74  73  96 NE3       30.14R FOG
STAFFORD*      CLOUDY    70  68  94 NE6       30.18S FOG
WARRENTON      CLOUDY    69  69 100 NE3       30.15R FOG
CULPEPER*      CLOUDY    67  67  99 CALM      30.16R FOG
MANASSAS*      CLOUDY    70  70 100 NE5       30.15R FOG
LEESBURG*      CLOUDY    68  68 100 NW6       30.17R FOG
WINCHESTER     CLOUDY    70  68  94 CALM      30.17R FOG
FRONT ROYAL*   CLOUDY    68  64  88 CALM      30.16R
LURAY*         CLOUDY    70  70 100 NE3       30.17R FOG
$$

VAZ048-049-060>072-079>083-051400-
CENTRAL AND SOUTH CENTRAL VIRGINIA

CITY           SKY/WX    TMP DP  RH WIND       PRES   REMARKS
RICHMOND       CLOUDY    71  70  96 NE5       30.14R FOG
CHESTERFIELD*  NOT AVBL
PETERSBURG*    CLOUDY    73  73 100 NE5       30.14R
HANOVER        CLOUDY    71  70  96 MISG      30.16R FOG
TAPPAHANNOCK*  CLOUDY    73  71  93 CALM      30.15R FOG
QUINTON*       NOT AVBL
CHARLOTTSVILLE CLOUDY    69  67  93 N3        30.16R FOG
GORDONSVILLE*  CLOUDY    68  68 100 CALM      30.15R FOG
ORANGE*        FOG       70  68  94 CALM      30.16R VSB 1/2
LOUISA*        CLOUDY    72  72 100 CALM      30.14R FOG
BUMPASS*       CLOUDY    71  69  94 CALM      30.15R
FARMVILLE*     CLOUDY    73  73 100 NE5       30.13R
CREWE*         CLOUDY    72  71  95 CALM      30.13R
FORT PICKETT*  CLOUDY    72  71  98 NE6       30.14R
CHASE CITY*    FAIR      78  74  88 CALM      30.13R
CLARKSVILLE*   PTSUNNY   73  72  94 CALM      30.12R
SOUTH HILL*    PTSUNNY   75  71  87 CALM      30.18S
LAWRENCEVILLE* NOT AVBL
EMPORIA*         N/A     77  70  78 CALM      30.14R
$$

VAZ088>098-051400-
SOUTHEAST VIRGINIA

CITY           SKY/WX    TMP DP  RH WIND       PRES   REMARKS
NORFOLK        CLOUDY    77  71  82 NE5       30.11S
VIRGINIA BEACH PTSUNNY   82  71  69 VRB3      30.11R
NORFOLK NAVAL  PTSUNNY   78  72  81 NE6       30.13R
WEST POINT*    CLOUDY    74  72  93 CALM      30.15R
SALUDA*        PTSUNNY   75  73  92 CALM      30.13R
NEWPORT NEWS   MOSUNNY   77  72  84 NE5       30.13R
LANGLEY AFB    MOSUNNY   78  72  82 NE5       30.11R
FORT EUSTIS    MOSUNNY   77  77 100 NE6       30.11R
WILLIAMSBURG*  MOSUNNY   77  75  94 CALM      30.14R
HR EXEC AP*    FAIR      79  72  78 CALM      30.14R
FRANKLIN*      MOSUNNY   78  71  80 CALM      30.13R
WAKEFIELD      PTSUNNY   78  72  81 CALM      30.13R
$$

VAZ020-022-025-037-045-051400-
WEST CENTRAL AND SOUTHWEST VIRGINIA

CITY           SKY/WX    TMP DP  RH WIND       PRES   REMARKS
STAUNTON*      FOG       69  68  96 CALM      30.19R VSB 3/4
WAYNESBORO*    CLOUDY    67  66  97 CALM      30.18R
HOT SPRINGS VA PTSUNNY   65  65 100 E3        30.24S FOG
LYNCHBURG      CLOUDY    71  69  93 NE6       30.16S
DANVILLE       CLOUDY    74  70  87 CALM      30.13R
SOUTH BOSTON*  FAIR      73  71  95 MISG      30.13R
MARTINSVILLE   CLOUDY    72  72 100 CALM      30.16R
ROANOKE        CLOUDY    71  66  84 NE3       30.17R
BLACKSBURG     CLOUDY    69  68  96 CALM      30.22R
DUBLIN*        CLOUDY    68  68 100 CALM      30.19S FOG
MARION*        CLOUDY    67  66  95 NE5       30.21R
HILLSVILLE*    CLOUDY    67  66  97 CALM      30.18S
RICHLANDS*     DRIZZLE   66  66 100 CALM      30.17S
WISE*          CLOUDY    66  66 100 CALM      30.17S
ABINGDON*      CLOUDY    69  69  98 E8        30.15S
$$

MDZ021>025-VAZ099-100-051400-
SOUTHERN MARYLAND AND THE DELMARVA PENINSULA

CITY           SKY/WX    TMP DP  RH WIND       PRES   REMARKS
PATUXENT RIVER PTSUNNY   74  69  85 E8        30.13R
BAY BRIDGE APT   N/A     72  64  78 E3        30.14R
LEONARDTOWN    CLOUDY    72  68  88 CALM      30.15R
DOVER          MOSUNNY   74  68  81 E5        30.12R
GEORGETOWN     CLOUDY    73  68  84 VRB5      30.14S
EASTON         MOSUNNY   72  72 100 CALM      30.18
CAMBRIDGE      MOSUNNY   73  68  83 E3        30.13R
SALISBURY      MOSUNNY   74  68  81 N6        30.13R
OCEAN CITY     MOSUNNY   75  68  78 NE5       30.13R
WALLOPS ISLAND PTSUNNY   75  71  87 NE6       30.13R
ACCOMACK*      PTSUNNY   72  72 100 CALM      30.13R
$$

NCZ012>017-030>032-051400-
NORTH CENTRAL AND EASTERN NORTH CAROLINA

CITY           SKY/WX    TMP DP  RH WIND       PRES   REMARKS
ROANOKE RAPIDS FAIR      77  70  78 S3        30.12R
RALEIGH        PTSUNNY   80  71  74 SW7       30.12S
ELIZABETH CITY MOSUNNY   78  73  84 W8        30.12R
AHOSKIE*       SUNNY    N/A N/A N/A CALM      30.12S HAZE
EDENTON*       MOSUNNY   77  71  82 W6        30.12R
CURRITUCK*     MOSUNNY   78  72  80 W3        30.12S
KILL DEVIL HLS MOSUNNY   79  73  81 SW5       30.12R
MANTEO         MOSUNNY   78  73  86 SW7       30.13R
CAPE HATTERAS  CLOUDY    78  73  84 SW9       30.15R
TARBORO*         N/A     78  72  81 W5        30.13R
GOLDSBORO      MOSUNNY   79  71  75 SW6       30.11R
WASHINGTON     CLOUDY    77  73  85 SW6       30.14R
GREENVILLE     CLOUDY    77  73  88 W5        30.13S
NEW BERN       CLOUDY    79  70  74 SW7       30.15R
WILMINGTON     CLOUDY    78  69  73 SW8       30.16R
$$

VAZ048-051400-
ELSEWHERE

CITY           SKY/WX    TMP DP  RH WIND       PRES   REMARKS
HARRISBURG PA  CLOUDY    66  64  93 NW3       30.15R FOG
BALTIMORE      PTSUNNY   72  65  78 VRB3      30.14R
ANNAPOLIS      PTSUNNY   72  67  84 CALM      30.14R
ANDREWS AFB    MOSUNNY   69  69 100 NE3       30.14R
PHILADELPHIA   PTSUNNY   74  59  59 VRB3      30.14R
HENDERSON NC   MOSUNNY   75  69  82 CALM      30.13R
GREENSBORO     CLOUDY    76  70  82 S5        30.12R
ROCKY MOUNT    MOSUNNY   80  73  79 S9        30.12R
$$

VAZ100-051400-
MARINE

STATION/POSITION TIME  TEMP    WIND        PRES    WAVE   SWELL
                       AIR SEA DIR/SP/G            HT/PER HT/PER
                 (UTC) (F)     (DEG/KT/KT) (MB)    (FT/S) (FT/S)
BRANDYWINE LGT   1200   71 74  100/  6/  7 1020.3R
CAPE MAY NJ      1200   71 75  110/  3/  4 1019.8R
LEWES DE         1200   72 73   90/  5/  6 1020.0R
15NM E FENWICK I 1250   73 73              1020.0R   4/ 7
OCEAN-CITY-INLET 1200   72 74   70/  3/  4 1019.8R
WACHAPREAGUE VA  1200   71 79   20/  3/  4 1019.7R
THOMAS POINT MD  1300   72 77  110/  3/  4 1021.1R
GOOSES REEF MD   1300   74 77   80/  6/  6 1021.4R
COVE POINT MD    1200   72      80/  7/  9 1020.5R
SOLOMONS ISLAND  1200      79                N/A
BISHOPS HEAD MD  1200   74      50/  5/  7 1019.6R
PINEY POINT MD   1200           30/  3/  4   N/A
CAMBRIDGE MD     1200   72 79   90/  5/  6 1019.9R
LEWISETTA VA     1200   74 79   30/  2/  3 1019.5R
RAPPAHANNOCK LGT 1200           60/ 12/ 13 1020.1R
STINGRAY PT      1300   77 80   80/  8/ 10 1020.3R   1/ 2
YORK RVR RNG VA  1200   76      80/  3/  4 1019.1R
YORKTOWN VA      1200   75 80   40/  1/  3 1019.4R
JAMESTOWN VA     1300   75 82   40/  4/  8   N/A
DOMINION TERM VA 1200   76      60/  4/  5 1019.4R
KIPTOPEKE VA     1200      81   80/  3/  3   N/A
CHES BAY BRIDGE  1200   76 78   30/  6/  7 1019.0R
CAPE HENRY VA    1200   76      10/  3/  4   N/A
CHESAPEAKE LGHT  1200   76     360/  2/  2 1020.3R
WILLOUBY STN VA  1200   76      50/  4/  5 1020.4R
CAPE HENRY BUOY  1228      78                N/A     2/ 6
1ST LANDING BUOY 1300      79              1019.5R   1/ 6
CAPE CHARLES BUO 1226      77                N/A     2/ 6   2/ 6
OFFSHORE WE BUOY 1211      77                N/A     3/ 6   3/ 6
64NM E OF VA BCH 1250   77 76  360/  4/  4 1019.2R   4/ 7   3/ 7
DUCK PIER NC     1200   78 74  260/  5/  7   N/A
44100 DUCK FRF   1224      78                N/A     3/ 7
44056 DUCK FRF   1211      77                N/A     2/ 6
OREGON INLET NC  1200   79 79  230/  9/ 11 1019.6R
HATTERAS NC      1200   78 79  230/  8/ 10 1019.9R
DIAMOND SHLS NC  1250   80 81  240/ 16/ 19 1020.2R   4/ 6   2/ 8
CAPE LOOKOUT NC  1300   81     220/ 10/ 12 1020.9R
$$


USA.gov is the U.S. government's official web portal to all federal, state and local government web resources and services.